Time,TemperatureF,DewpointF,PressureIn,WindDirection,WindDirectionDegrees,WindSpeedMPH,WindSpeedGustMPH,Humidity,HourlyPrecipIn,Conditions,Clouds,dailyrainin,SoftwareType,DateUTC
2014-12-26 00:03:00,30.9,27.2,30.00,NNW,327,0.0,0.0,86,0.00,,OVC029,0.00,VWS V15.00,2014-12-26 06:03:00,
2014-12-26 00:08:00,30.8,27.1,29.99,NNW,327,0.0,0.0,86,0.00,,OVC029,0.00,VWS V15.00,2014-12-26 06:08:00,
2014-12-26 00:13:00,30.8,27.1,29.99,NNW,327,1.0,2.0,86,0.00,,OVC029,0.00,VWS V15.00,2014-12-26 06:13:00,
2014-12-26 00:18:00,30.8,27.1,30.00,NNW,327,0.0,1.0,86,0.00,,OVC029,0.00,VWS V15.00,2014-12-26 06:18:00,
2014-12-26 00:23:00,30.8,27.1,30.00,NNW,327,1.0,2.0,86,0.00,,OVC029,0.00,VWS V15.00,2014-12-26 06:23:00,
2014-12-26 00:28:00,30.7,27.0,30.00,NNW,327,0.0,1.0,86,0.00,,OVC029,0.00,VWS V15.00,2014-12-26 06:28:00,
2014-12-26 00:33:00,30.7,27.0,30.00,NNW,327,2.0,2.0,86,0.00,,OVC029,0.00,VWS V15.00,2014-12-26 06:33:00,
2014-12-26 00:38:00,30.6,26.9,30.00,NNW,327,0.0,2.0,86,0.00,,OVC027,0.00,VWS V15.00,2014-12-26 06:38:00,
2014-12-26 00:43:00,30.6,26.9,30.00,NNW,327,1.0,2.0,86,0.00,,OVC027,0.00,VWS V15.00,2014-12-26 06:43:00,
2014-12-26 00:48:00,30.5,26.8,30.00,NNW,327,0.0,2.0,86,0.00,,OVC027,0.00,VWS V15.00,2014-12-26 06:48:00,
2014-12-26 00:53:00,30.5,26.8,30.00,NNW,327,0.0,1.0,86,0.00,,OVC027,0.00,VWS V15.00,2014-12-26 06:53:00,
2014-12-26 00:58:00,30.4,26.7,30.00,NNW,327,0.0,1.0,86,0.00,,OVC027,0.00,VWS V15.00,2014-12-26 06:58:00,
2014-12-26 01:03:00,30.3,26.6,30.00,NNW,327,1.0,1.0,86,0.00,,OVC027,0.00,VWS V15.00,2014-12-26 07:03:00,
2014-12-26 01:08:00,30.3,26.6,30.00,NNW,327,0.0,1.0,86,0.00,,OVC027,0.00,VWS V15.00,2014-12-26 07:08:00,
2014-12-26 01:13:00,30.2,26.5,29.99,NNW,327,2.0,2.0,86,0.00,,OVC027,0.00,VWS V15.00,2014-12-26 07:13:00,
2014-12-26 01:18:00,30.1,26.4,29.99,NNW,327,2.0,3.0,86,0.00,,OVC027,0.00,VWS V15.00,2014-12-26 07:18:00,
2014-12-26 01:23:00,30.1,26.4,29.99,NNW,327,2.0,4.0,86,0.00,,OVC027,0.00,VWS V15.00,2014-12-26 07:23:00,
2014-12-26 01:27:00,30.1,26.4,29.99,NNW,327,0.0,3.0,86,0.00,,OVC027,0.00,VWS V15.00,2014-12-26 07:27:00,
2014-12-26 01:32:00,30.1,26.4,29.99,NNW,327,0.0,1.0,86,0.00,,OVC027,0.00,VWS V15.00,2014-12-26 07:32:00,
2014-12-26 01:37:00,30.1,26.4,29.99,NNW,327,0.0,0.0,86,0.00,,OVC026,0.00,VWS V15.00,2014-12-26 07:37:00,
2014-12-26 01:42:00,30.1,26.4,30.00,NNW,327,0.0,1.0,86,0.00,,OVC026,0.00,VWS V15.00,2014-12-26 07:42:00,
2014-12-26 01:47:00,30.1,26.4,30.00,NNW,327,1.0,2.0,86,0.00,,OVC026,0.00,VWS V15.00,2014-12-26 07:47:00,
2014-12-26 01:52:00,30.1,26.4,30.00,NNW,327,0.0,1.0,86,0.00,,OVC026,0.00,VWS V15.00,2014-12-26 07:52:00,
2014-12-26 01:57:00,30.1,26.4,30.00,NNW,327,0.0,1.0,86,0.00,,OVC026,0.00,VWS V15.00,2014-12-26 07:57:00,
2014-12-26 02:02:00,30.1,26.4,30.00,NNW,327,1.0,2.0,86,0.00,,OVC026,0.00,VWS V15.00,2014-12-26 08:02:00,
2014-12-26 02:07:00,30.1,26.1,30.00,NNW,327,1.0,2.0,85,0.00,,OVC026,0.00,VWS V15.00,2014-12-26 08:07:00,
2014-12-26 02:12:00,30.1,26.1,30.00,NNW,327,0.0,2.0,85,0.00,,OVC026,0.00,VWS V15.00,2014-12-26 08:12:00,
2014-12-26 02:17:00,30.1,26.1,30.00,NNW,327,0.0,0.0,85,0.00,,OVC026,0.00,VWS V15.00,2014-12-26 08:17:00,
2014-12-26 02:22:00,30.1,26.1,30.01,NNW,327,0.0,0.0,85,0.00,,OVC026,0.00,VWS V15.00,2014-12-26 08:22:00,
2014-12-26 02:27:00,30.2,26.2,30.01,NNW,327,0.0,0.0,85,0.00,,OVC026,0.00,VWS V15.00,2014-12-26 08:27:00,
2014-12-26 02:32:00,30.1,26.1,30.01,NNW,327,0.0,0.0,85,0.00,,OVC026,0.00,VWS V15.00,2014-12-26 08:32:00,
2014-12-26 02:37:00,30.1,25.9,30.01,NNW,327,0.0,0.0,84,0.00,,OVC026,0.00,VWS V15.00,2014-12-26 08:37:00,
2014-12-26 02:42:00,30.1,25.9,30.01,NNW,327,0.0,0.0,84,0.00,,OVC026,0.00,VWS V15.00,2014-12-26 08:42:00,
2014-12-26 02:47:00,30.1,25.9,30.01,NNW,327,0.0,0.0,84,0.00,,OVC026,0.00,VWS V15.00,2014-12-26 08:47:00,
2014-12-26 02:52:00,30.1,25.9,30.02,NNW,327,0.0,0.0,84,0.00,,OVC026,0.00,VWS V15.00,2014-12-26 08:52:00,
2014-12-26 02:57:00,30.1,25.9,30.02,NNW,327,1.0,2.0,84,0.00,,OVC026,0.00,VWS V15.00,2014-12-26 08:57:00,
2014-12-26 03:02:00,30.1,25.9,30.02,NNW,329,0.0,2.0,84,0.00,,OVC026,0.00,VWS V15.00,2014-12-26 09:02:00,
2014-12-26 03:07:00,30.0,25.8,30.02,NNW,329,0.0,2.0,84,0.00,,OVC026,0.00,VWS V15.00,2014-12-26 09:07:00,
2014-12-26 03:12:00,29.9,26.0,30.02,NNW,329,0.0,2.0,85,0.00,,OVC026,0.00,VWS V15.00,2014-12-26 09:12:00,
2014-12-26 03:17:00,29.9,26.0,30.02,NNW,329,0.0,2.0,85,0.00,,OVC026,0.00,VWS V15.00,2014-12-26 09:17:00,
2014-12-26 03:22:00,29.8,25.9,30.02,NNW,329,2.0,2.0,85,0.00,,OVC026,0.00,VWS V15.00,2014-12-26 09:22:00,
2014-12-26 03:27:00,29.8,25.9,30.02,NNW,329,0.0,0.0,85,0.00,,OVC026,0.00,VWS V15.00,2014-12-26 09:27:00,
2014-12-26 03:32:00,29.8,25.9,30.02,NNW,329,0.0,0.0,85,0.00,,OVC028,0.00,VWS V15.00,2014-12-26 09:32:00,
2014-12-26 03:37:00,29.8,25.9,30.02,NNW,329,0.0,0.0,85,0.00,,OVC028,0.00,VWS V15.00,2014-12-26 09:37:00,
2014-12-26 03:42:00,29.7,25.8,30.02,NNW,329,0.0,0.0,85,0.00,,OVC028,0.00,VWS V15.00,2014-12-26 09:42:00,
2014-12-26 03:47:00,29.7,26.0,30.02,NNW,329,0.0,1.0,86,0.00,,OVC028,0.00,VWS V15.00,2014-12-26 09:47:00,
2014-12-26 03:52:00,29.7,26.0,30.02,NNW,329,0.0,0.0,86,0.00,,OVC030,0.00,VWS V15.00,2014-12-26 09:52:00,
2014-12-26 03:57:00,29.7,26.0,30.03,NNW,329,0.0,0.0,86,0.00,,OVC030,0.00,VWS V15.00,2014-12-26 09:57:00,
2014-12-26 04:02:00,29.7,26.0,30.03,NNW,329,0.0,0.0,86,0.00,,OVC030,0.00,VWS V15.00,2014-12-26 10:02:00,
2014-12-26 04:07:00,29.7,26.0,30.03,NNW,329,0.0,0.0,86,0.00,,OVC030,0.00,VWS V15.00,2014-12-26 10:07:00,
2014-12-26 04:12:00,29.7,26.0,30.03,NNW,329,0.0,0.0,86,0.00,,OVC030,0.00,VWS V15.00,2014-12-26 10:12:00,
2014-12-26 04:17:00,29.7,26.0,30.03,NNW,329,0.0,0.0,86,0.00,,OVC030,0.00,VWS V15.00,2014-12-26 10:17:00,
2014-12-26 04:22:00,29.7,26.0,30.03,NNW,329,0.0,0.0,86,0.00,,OVC030,0.00,VWS V15.00,2014-12-26 10:22:00,
2014-12-26 04:27:00,29.7,26.0,30.04,NNW,329,1.0,2.0,86,0.00,,OVC030,0.00,VWS V15.00,2014-12-26 10:27:00,
2014-12-26 04:32:00,29.7,26.0,30.03,NNW,329,0.0,2.0,86,0.00,,OVC030,0.00,VWS V15.00,2014-12-26 10:32:00,
2014-12-26 04:37:00,29.7,26.0,30.03,NNW,340,0.0,2.0,86,0.00,,OVC030,0.00,VWS V15.00,2014-12-26 10:37:00,
2014-12-26 04:42:00,29.7,26.0,30.04,NNW,342,1.0,4.0,86,0.00,,OVC031,0.00,VWS V15.00,2014-12-26 10:42:00,
2014-12-26 04:47:00,29.7,26.0,30.04,NNW,342,1.0,3.0,86,0.00,,OVC031,0.00,VWS V15.00,2014-12-26 10:47:00,
2014-12-26 04:52:00,29.7,26.0,30.04,NNW,342,1.0,3.0,86,0.00,,OVC031,0.00,VWS V15.00,2014-12-26 10:52:00,
2014-12-26 04:57:00,29.6,25.9,30.04,NNW,342,1.0,4.0,86,0.00,,OVC031,0.00,VWS V15.00,2014-12-26 10:57:00,
2014-12-26 05:02:00,29.6,25.9,30.04,NNW,348,4.0,5.0,86,0.00,,OVC031,0.00,VWS V15.00,2014-12-26 11:02:00,
2014-12-26 05:07:00,29.6,25.9,30.04,NNE,18,1.0,4.0,86,0.00,,OVC031,0.00,VWS V15.00,2014-12-26 11:07:00,
2014-12-26 05:12:00,29.6,25.9,30.04,NNW,346,1.0,4.0,86,0.00,,OVC031,0.00,VWS V15.00,2014-12-26 11:12:00,
2014-12-26 05:17:00,29.4,25.7,30.05,NNW,341,5.0,6.0,86,0.00,,OVC031,0.00,VWS V15.00,2014-12-26 11:17:00,
2014-12-26 05:22:00,29.4,25.7,30.05,North,360,2.0,5.0,86,0.00,,OVC031,0.00,VWS V15.00,2014-12-26 11:22:00,
2014-12-26 05:27:00,29.3,25.6,30.05,North,350,4.0,5.0,86,0.00,,OVC031,0.00,VWS V15.00,2014-12-26 11:27:00,
2014-12-26 05:32:00,29.2,25.5,30.05,North,355,4.0,5.0,86,0.00,,OVC031,0.00,VWS V15.00,2014-12-26 11:32:00,
2014-12-26 05:37:00,29.2,25.5,30.05,North,355,2.0,4.0,86,0.00,,OVC031,0.00,VWS V15.00,2014-12-26 11:37:00,
2014-12-26 05:42:00,29.1,25.4,30.05,North,355,2.0,5.0,86,0.00,,OVC029,0.00,VWS V15.00,2014-12-26 11:42:00,
2014-12-26 05:47:00,29.0,25.4,30.05,North,355,2.0,3.0,86,0.00,,OVC029,0.00,VWS V15.00,2014-12-26 11:47:00,
2014-12-26 05:52:00,29.0,25.4,30.06,NNW,348,5.0,5.0,86,0.00,,OVC029,0.00,VWS V15.00,2014-12-26 11:52:00,
2014-12-26 05:57:00,29.0,25.4,30.06,NNW,338,4.0,5.0,86,0.00,,OVC029,0.00,VWS V15.00,2014-12-26 11:57:00,
2014-12-26 06:02:00,28.9,25.2,30.06,NNE,15,2.0,5.0,86,0.00,,OVC029,0.00,VWS V15.00,2014-12-26 12:02:00,
2014-12-26 06:07:00,28.9,25.2,30.06,NNW,345,1.0,5.0,86,0.00,,OVC029,0.00,VWS V15.00,2014-12-26 12:07:00,
2014-12-26 06:12:00,28.9,25.2,30.06,North,11,0.0,5.0,86,0.00,,OVC029,0.00,VWS V15.00,2014-12-26 12:12:00,
2014-12-26 06:17:00,28.8,25.1,30.07,NNW,333,2.0,5.0,86,0.00,,OVC029,0.00,VWS V15.00,2014-12-26 12:17:00,
2014-12-26 06:22:00,28.8,25.1,30.07,NNW,348,2.0,4.0,86,0.00,,OVC029,0.00,VWS V15.00,2014-12-26 12:22:00,
2014-12-26 06:27:00,28.7,25.0,30.07,North,9,2.0,5.0,86,0.00,,OVC029,0.00,VWS V15.00,2014-12-26 12:27:00,
2014-12-26 06:32:00,28.6,24.7,30.07,NNE,23,2.0,7.0,85,0.00,,OVC029,0.00,VWS V15.00,2014-12-26 12:32:00,
2014-12-26 06:37:00,28.5,24.6,30.08,NNE,12,5.0,5.0,85,0.00,,OVC029,0.00,VWS V15.00,2014-12-26 12:37:00,
2014-12-26 06:42:00,28.5,24.6,30.08,NNW,340,3.0,4.0,85,0.00,,OVC029,0.00,VWS V15.00,2014-12-26 12:42:00,
2014-12-26 06:47:00,28.4,24.5,30.08,North,5,4.0,5.0,85,0.00,,OVC029,0.00,VWS V15.00,2014-12-26 12:47:00,
2014-12-26 06:52:00,28.4,24.5,30.07,North,5,4.0,5.0,85,0.00,,,0.00,VWS V15.00,2014-12-26 12:52:00,
2014-12-26 06:57:00,28.4,24.2,30.08,North,355,4.0,5.0,84,0.00,,,0.00,VWS V15.00,2014-12-26 12:57:00,
2014-12-26 07:02:00,28.4,24.2,30.08,North,355,2.0,4.0,84,0.00,,,0.00,VWS V15.00,2014-12-26 13:02:00,
2014-12-26 07:07:00,28.4,24.2,30.08,NNW,342,2.0,4.0,84,0.00,,,0.00,VWS V15.00,2014-12-26 13:07:00,
2014-12-26 07:12:00,28.3,24.1,30.08,North,350,2.0,5.0,84,0.00,,,0.00,VWS V15.00,2014-12-26 13:12:00,
2014-12-26 07:17:00,28.3,24.1,30.08,North,10,4.0,5.0,84,0.00,,,0.00,VWS V15.00,2014-12-26 13:17:00,
2014-12-26 07:22:00,28.3,24.1,30.08,North,5,1.0,4.0,84,0.00,,,0.00,VWS V15.00,2014-12-26 13:22:00,
2014-12-26 07:27:00,28.3,24.1,30.08,North,5,2.0,6.0,84,0.00,,,0.00,VWS V15.00,2014-12-26 13:27:00,
2014-12-26 07:32:00,28.3,24.1,30.08,North,360,4.0,5.0,84,0.00,,,0.00,VWS V15.00,2014-12-26 13:32:00,
2014-12-26 07:37:00,28.3,24.1,30.08,North,355,1.0,6.0,84,0.00,,,0.00,VWS V15.00,2014-12-26 13:37:00,
2014-12-26 07:42:00,28.3,24.1,30.08,North,355,2.0,5.0,84,0.00,,,0.00,VWS V15.00,2014-12-26 13:42:00,
2014-12-26 07:47:00,28.3,24.1,30.08,North,351,2.0,6.0,84,0.00,,,0.00,VWS V15.00,2014-12-26 13:47:00,
2014-12-26 07:52:00,28.3,24.1,30.08,North,11,4.0,6.0,84,0.00,,,0.00,VWS V15.00,2014-12-26 13:52:00,
2014-12-26 07:57:00,28.3,24.1,30.09,NNW,340,5.0,6.0,84,0.00,,,0.00,VWS V15.00,2014-12-26 13:57:00,
2014-12-26 08:02:00,28.4,24.2,30.09,North,355,3.0,6.0,84,0.00,,,0.00,VWS V15.00,2014-12-26 14:02:00,
2014-12-26 08:07:00,28.4,24.2,30.09,NNW,348,5.0,7.0,84,0.00,,,0.00,VWS V15.00,2014-12-26 14:07:00,
2014-12-26 08:12:00,28.4,24.2,30.09,NNW,344,5.0,5.0,84,0.00,,,0.00,VWS V15.00,2014-12-26 14:12:00,
2014-12-26 08:17:00,28.4,24.2,30.10,NNW,343,6.0,7.0,84,0.00,,,0.00,VWS V15.00,2014-12-26 14:17:00,
2014-12-26 08:22:00,28.5,24.3,30.10,North,349,3.0,6.0,84,0.00,,,0.00,VWS V15.00,2014-12-26 14:22:00,
2014-12-26 08:27:00,28.5,24.3,30.10,North,349,3.0,6.0,84,0.00,,,0.00,VWS V15.00,2014-12-26 14:27:00,
2014-12-26 08:32:00,28.5,24.3,30.11,North,355,7.0,7.0,84,0.00,,,0.00,VWS V15.00,2014-12-26 14:32:00,
2014-12-26 08:37:00,28.6,24.1,30.11,NNW,327,5.0,6.0,83,0.00,,,0.00,VWS V15.00,2014-12-26 14:37:00,
2014-12-26 08:42:00,28.6,24.4,30.11,NNW,346,5.0,5.0,84,0.00,,,0.00,VWS V15.00,2014-12-26 14:42:00,
2014-12-26 08:47:00,28.6,24.4,30.12,NNW,337,6.0,6.0,84,0.00,,,0.00,VWS V15.00,2014-12-26 14:47:00,
2014-12-26 08:52:00,28.6,24.1,30.11,North,360,4.0,6.0,83,0.00,,,0.00,VWS V15.00,2014-12-26 14:52:00,
2014-12-26 08:57:00,28.6,24.1,30.12,NNW,346,4.0,6.0,83,0.00,,,0.00,VWS V15.00,2014-12-26 14:57:00,
2014-12-26 09:02:00,28.6,24.1,30.11,North,5,5.0,6.0,83,0.00,,,0.00,VWS V15.00,2014-12-26 15:02:00,
2014-12-26 09:07:00,28.7,24.2,30.12,North,360,4.0,6.0,83,0.00,,,0.00,VWS V15.00,2014-12-26 15:07:00,
2014-12-26 09:12:00,28.7,24.2,30.12,North,355,6.0,6.0,83,0.00,,,0.00,VWS V15.00,2014-12-26 15:12:00,
2014-12-26 09:17:00,28.7,24.2,30.13,NNW,338,2.0,7.0,83,0.00,,,0.00,VWS V15.00,2014-12-26 15:17:00,
2014-12-26 09:22:00,28.7,24.2,30.13,North,355,2.0,4.0,83,0.00,,,0.00,VWS V15.00,2014-12-26 15:22:00,
2014-12-26 09:27:00,28.7,24.2,30.12,North,5,4.0,5.0,83,0.00,,,0.00,VWS V15.00,2014-12-26 15:27:00,
2014-12-26 09:32:00,28.7,24.2,30.12,North,351,2.0,5.0,83,0.00,,,0.00,VWS V15.00,2014-12-26 15:32:00,
2014-12-26 09:37:00,28.8,24.3,30.13,NNW,348,1.0,5.0,83,0.00,,,0.00,VWS V15.00,2014-12-26 15:37:00,
2014-12-26 09:42:00,28.8,24.0,30.14,North,351,0.0,5.0,82,0.00,,OVC026,0.00,VWS V15.00,2014-12-26 15:42:00,
2014-12-26 09:47:00,28.8,24.3,30.14,NNW,344,2.0,5.0,83,0.00,,OVC026,0.00,VWS V15.00,2014-12-26 15:47:00,
2014-12-26 09:52:00,28.8,24.0,30.14,North,355,4.0,4.0,82,0.00,,OVC026,0.00,VWS V15.00,2014-12-26 15:52:00,
2014-12-26 09:57:00,28.8,24.0,30.14,North,355,4.0,4.0,82,0.00,,OVC026,0.00,VWS V15.00,2014-12-26 15:57:00,
2014-12-26 10:02:00,28.8,24.0,30.14,NNW,346,2.0,5.0,82,0.00,,OVC026,0.00,VWS V15.00,2014-12-26 16:02:00,
2014-12-26 10:07:00,28.9,24.1,30.14,NNW,343,2.0,6.0,82,0.00,,OVC026,0.00,VWS V15.00,2014-12-26 16:07:00,
2014-12-26 10:12:00,29.0,24.2,30.14,North,355,4.0,6.0,82,0.00,,OVC026,0.00,VWS V15.00,2014-12-26 16:12:00,
2014-12-26 10:17:00,29.0,23.9,30.14,North,355,5.0,6.0,81,0.00,,OVC026,0.00,VWS V15.00,2014-12-26 16:17:00,
2014-12-26 10:22:00,29.0,23.9,30.14,North,355,4.0,6.0,81,0.00,,OVC026,0.00,VWS V15.00,2014-12-26 16:22:00,
2014-12-26 10:27:00,29.0,23.9,30.14,North,5,5.0,6.0,81,0.00,,OVC026,0.00,VWS V15.00,2014-12-26 16:27:00,
2014-12-26 10:32:00,29.1,24.0,30.14,North,355,4.0,5.0,81,0.00,,OVC026,0.00,VWS V15.00,2014-12-26 16:32:00,
2014-12-26 10:37:00,29.2,24.4,30.14,NNW,346,5.0,6.0,82,0.00,,OVC026,0.00,VWS V15.00,2014-12-26 16:37:00,
2014-12-26 10:42:00,29.2,24.4,30.14,NNW,328,4.0,6.0,82,0.00,,,0.00,VWS V15.00,2014-12-26 16:42:00,
2014-12-26 10:47:00,29.3,24.5,30.14,North,355,2.0,5.0,82,0.00,,,0.00,VWS V15.00,2014-12-26 16:47:00,
2014-12-26 10:52:00,29.4,24.6,30.14,North,360,1.0,5.0,82,0.00,,,0.00,VWS V15.00,2014-12-26 16:52:00,
2014-12-26 10:57:00,29.4,24.6,30.15,North,355,4.0,6.0,82,0.00,,,0.00,VWS V15.00,2014-12-26 16:57:00,
2014-12-26 11:02:00,29.4,24.6,30.14,NNW,348,4.0,5.0,82,0.00,,,0.00,VWS V15.00,2014-12-26 17:02:00,
2014-12-26 11:07:00,29.4,24.6,30.14,NNW,346,2.0,6.0,82,0.00,,,0.00,VWS V15.00,2014-12-26 17:07:00,
2014-12-26 11:12:00,29.3,24.5,30.14,NNE,12,4.0,5.0,82,0.00,,,0.00,VWS V15.00,2014-12-26 17:12:00,
2014-12-26 11:17:00,29.4,24.6,30.14,NNW,342,4.0,6.0,82,0.00,,,0.00,VWS V15.00,2014-12-26 17:17:00,
2014-12-26 11:22:00,29.4,24.9,30.14,North,360,5.0,5.0,83,0.00,,,0.00,VWS V15.00,2014-12-26 17:22:00,
2014-12-26 11:27:00,29.4,24.6,30.13,NNW,348,4.0,5.0,82,0.00,,,0.00,VWS V15.00,2014-12-26 17:27:00,
2014-12-26 11:32:00,29.4,24.9,30.13,North,9,4.0,6.0,83,0.00,,,0.00,VWS V15.00,2014-12-26 17:32:00,
2014-12-26 11:37:00,29.4,24.6,30.13,North,355,4.0,7.0,82,0.00,,,0.00,VWS V15.00,2014-12-26 17:37:00,
2014-12-26 11:42:00,29.4,24.9,30.13,NNW,346,6.0,7.0,83,0.00,,,0.00,VWS V15.00,2014-12-26 17:42:00,
2014-12-26 11:47:00,29.5,25.0,30.12,NNW,344,4.0,6.0,83,0.00,,,0.00,VWS V15.00,2014-12-26 17:47:00,
2014-12-26 11:52:00,29.6,25.1,30.13,North,9,2.0,6.0,83,0.00,,,0.00,VWS V15.00,2014-12-26 17:52:00,
2014-12-26 11:57:00,29.7,24.9,30.13,NNW,348,2.0,6.0,82,0.00,,,0.00,VWS V15.00,2014-12-26 17:57:00,
2014-12-26 12:02:00,29.7,24.9,30.13,NNW,339,5.0,7.0,82,0.00,,,0.00,VWS V15.00,2014-12-26 18:02:00,
2014-12-26 12:07:00,29.7,24.9,30.13,North,355,6.0,7.0,82,0.00,,,0.00,VWS V15.00,2014-12-26 18:07:00,
2014-12-26 12:12:00,29.7,24.9,30.13,NNW,339,4.0,7.0,82,0.00,,,0.00,VWS V15.00,2014-12-26 18:12:00,
2014-12-26 12:17:00,29.7,24.9,30.13,North,349,5.0,6.0,82,0.00,,,0.00,VWS V15.00,2014-12-26 18:17:00,
2014-12-26 12:22:00,29.7,24.9,30.13,NNW,340,5.0,7.0,82,0.00,,,0.00,VWS V15.00,2014-12-26 18:22:00,
2014-12-26 12:27:00,29.8,25.0,30.12,North,355,6.0,7.0,82,0.00,,,0.00,VWS V15.00,2014-12-26 18:27:00,
2014-12-26 12:32:00,29.9,25.1,30.12,NNW,338,5.0,7.0,82,0.00,,,0.00,VWS V15.00,2014-12-26 18:32:00,
2014-12-26 12:37:00,29.9,25.1,30.12,NNW,344,7.0,8.0,82,0.00,,,0.00,VWS V15.00,2014-12-26 18:37:00,
2014-12-26 12:42:00,29.8,25.0,30.12,North,355,5.0,6.0,82,0.00,,,0.00,VWS V15.00,2014-12-26 18:42:00,
2014-12-26 12:47:00,29.7,24.9,30.12,NNW,347,3.0,6.0,82,0.00,,,0.00,VWS V15.00,2014-12-26 18:47:00,
2014-12-26 12:52:00,29.7,24.9,30.12,North,5,6.0,6.0,82,0.00,,,0.00,VWS V15.00,2014-12-26 18:52:00,
2014-12-26 12:57:00,29.8,25.0,30.12,NNE,32,2.0,6.0,82,0.00,,,0.00,VWS V15.00,2014-12-26 18:57:00,
2014-12-26 13:02:00,29.8,25.0,30.12,North,355,5.0,6.0,82,0.00,,,0.00,VWS V15.00,2014-12-26 19:02:00,